LFLBLFLC

Guest
Details From LFLB - Aix-Les-Bains
To LFLC - Clermont-Ferrand_Auvergne
Flight Number -
Tags generated
Created
Modified
Stats Distance 114 nm / 211 km
Max Altitude 12,300 ft / 3,749 m
Waypoints 3
Social Downloads 3
Likes 0
Share VATSIM

Download

Looking for another format? Having issues loading an existing format? Contact us
Advertisement - Login to hide

Notes

Basic altitude profile: - Ascent Rate: 2500ft/min - Ascent Speed: 250kts - Cruise Altitude: 35000ft - Cruise Speed: 420kts - Descent Rate: 1500ft/min - Descent Speed: 250kts Options: - Use NATs: yes - Use PACOTS: yes - Use low airways: yes - Use high airways: yes

Route

LFLB MEBAK LFLC

ID Type Via Altitude Latitude Longitude Leg Dist Tot Dist Heading (true) Name
O LFLB APT - 0 ft / 0 m 45.63623˚ 5.88090˚ - 0 nm - Aix-Les-Bains
MEBAK FIX - 12,300 ft / 3,749 m 45.70806˚ 4.64889˚ 51 nm 51 nm 275° / 274° -
O LFLC APT - 0 ft / 0 m 45.78671˚ 3.16997˚ 62 nm 114 nm 275° / 274° Clermont-Ferrand_Auvergne

Altitude Profile

Advertisement - Login to hide

LFLB

Details ICAO LFLB (CMF)
Name Aix-Les-Bains
Region France
Timezone Europe/Paris (UTC+1.0)
Stats Elevation 779 ft / 237 m (AMSL)
Location 45.636234° 5.880898°
Runways 2
Magnetic Variation 1.690° E

METAR

LFLB 152130Z AUTO 20007KT 160V240 9999 SCT027/// BKN034/// BKN058/// ///TCU 04/02 Q1003 TEMPO 3000 SNRA BKN008

Decode

TAF

TAF AMD TAF AMD LFLB 152201Z 1522/1618 CNL

Decode

Departure Runways

ID Width Length Bearing (true) Bearing (mag) Surface Threshold Offset Overrun Length
18 148 ft / 45 m 5,452 ft / 1,662 m 176.72° 175.03° Asphalt 26 ft / 8 m 774 ft / 236 m
18L 197 ft / 60 m 2,309 ft / 704 m 176.70° 175.01° Grass 0 ft / 0 m 0 ft / 0 m
36 148 ft / 45 m 5,452 ft / 1,662 m 356.72° 355.03° Asphalt 23 ft / 7 m 456 ft / 139 m
36R 197 ft / 60 m 2,309 ft / 704 m 356.70° 355.01° Grass 315 ft / 96 m 0 ft / 0 m

LFLC

Details ICAO LFLC (CFE)
Name Clermont-Ferrand_Auvergne
Region France
Timezone Europe/Paris (UTC+1.0)
Stats Elevation 1,089 ft / 332 m (AMSL)
Location 45.786712° 3.169967°
Runways 1
Magnetic Variation 0.980° E

METAR

LFLC 152130Z AUTO 30010KT 260V330 9999 BKN030 BKN039 BKN068 05/M00 Q1005 TEMPO RA

Decode

TAF

TAF LFLC 152000Z 1521/1621 32012KT 9999 BKN030 PROB30 TEMPO 1521/1524 RA BKN015 PROB30 TEMPO 1602/1614 34012KT SHRA

Decode

Destination Runways

ID Width Length Bearing (true) Bearing (mag) Surface Threshold Offset Overrun Length
08 148 ft / 45 m 9,878 ft / 3,011 m 81.95° 80.97° Asphalt 0 ft / 0 m 0 ft / 0 m
26 148 ft / 45 m 9,878 ft / 3,011 m 261.98° 261.00° Asphalt 476 ft / 145 m 0 ft / 0 m

Approach Navaids

Runway Type Ident Frequency Range Bearing (true) Bearing (mag) Slope Elevation
26 Localiser CF 111.10 MHz 27 nm / 50 km 261.98° 261.00° - 1,089 ft / 332 m (AMSL)
26 Glidescope CF 111.10 MHz 27 nm / 50 km 261.98° 261.00° 3.00° 1,089 ft / 332 m (AMSL)
26 DME CF 111.10 MHz 27 nm / 50 km - - - 1,089 ft / 332 m (AMSL)

Popular Alternatives